,,,PA_Meas_PMT16A,,PR_Meas_QMR101_102,,RH_Meas_QMH101,,SR_Meas_QMS101,,TA_Meas_QMH101,,GenWind,,GenWind,
date,time,status,PA,status,PR,status,RH,status,SR,status,TA,status,DirAvg,status,SpdAvg,
2011-12-09, 00:00:04,VALID,997.257,VALID,0,VALID,93.8367,VALID,0,VALID,23.6054,VALID,42,VALID,0,
2011-12-09, 00:01:04,VALID,997.243,VALID,0,VALID,93.8596,VALID,0,VALID,23.6445,VALID,44,VALID,0,
2011-12-09, 00:02:04,VALID,997.19,VALID,0,VALID,93.8672,VALID,0,VALID,23.664,VALID,44,VALID,0,
2011-12-09, 00:03:04,VALID,997.151,VALID,0,VALID,93.8291,VALID,0,VALID,23.664,VALID,44,VALID,0,
2011-12-09, 00:04:04,VALID,997.159,VALID,0,VALID,93.8138,VALID,0,VALID,23.664,VALID,44,VALID,0,
2011-12-09, 00:05:04,VALID,997.143,VALID,0,VALID,93.8062,VALID,0,VALID,23.664,VALID,44,VALID,0,
2011-12-09, 00:06:04,VALID,997.117,VALID,0,VALID,93.7833,VALID,0,VALID,23.664,VALID,44,VALID,0,
2011-12-09, 00:07:04,VALID,997.133,VALID,0,VALID,93.7451,VALID,0,VALID,23.6835,VALID,44,VALID,0,
2011-12-09, 00:08:04,VALID,997.149,VALID,0,VALID,93.7375,VALID,0,VALID,23.664,VALID,44,VALID,0,
2011-12-09, 00:09:04,VALID,997.146,VALID,0,VALID,93.7146,VALID,0,VALID,23.6835,VALID,44,VALID,0,
2011-12-09, 00:10:04,VALID,997.12,VALID,0,VALID,93.7146,VALID,0,VALID,23.6622,VALID,44,VALID,0,
2011-12-09, 00:11:04,VALID,997.112,VALID,0,VALID,93.6612,VALID,0,VALID,23.6622,VALID,44,VALID,0,
2011-12-09, 00:12:04,VALID,997.096,VALID,0,VALID,93.6307,VALID,0,VALID,23.6622,VALID,44,VALID,0,
2011-12-09, 00:13:04,VALID,997.093,VALID,0,VALID,93.6154,VALID,0,VALID,23.6622,VALID,44,VALID,0,
2011-12-09, 00:14:04,VALID,997.105,VALID,0,VALID,93.5544,VALID,0,VALID,23.6622,VALID,44,VALID,0,
2011-12-09, 00:15:04,VALID,997.121,VALID,0,VALID,93.4781,VALID,0,VALID,23.6427,VALID,44,VALID,0,
2011-12-09, 00:16:04,VALID,997.122,VALID,0,VALID,93.4705,VALID,0,VALID,23.664,VALID,44,VALID,0,
2011-12-09, 00:17:04,VALID,997.146,VALID,0,VALID,93.5391,VALID,0,VALID,23.6622,VALID,44,VALID,0,
2011-12-09, 00:18:04,VALID,997.141,VALID,0,VALID,93.5926,VALID,0,VALID,23.6817,VALID,44,VALID,0,
2011-12-09, 00:19:04,VALID,997.142,VALID,0,VALID,93.6383,VALID,0,VALID,23.6817,VALID,44,VALID,0,
2011-12-09, 00:20:04,VALID,997.121,VALID,0,VALID,93.6612,VALID,0,VALID,23.7012,VALID,44,VALID,0,
2011-12-09, 00:21:04,VALID,997.142,VALID,0,VALID,93.7223,VALID,0,VALID,23.7402,VALID,44,VALID,0,
2011-12-09, 00:22:04,VALID,997.128,VALID,0,VALID,93.768,VALID,0,VALID,23.7402,VALID,44,VALID,0,
2011-12-09, 00:23:04,VALID,997.124,VALID,0,VALID,93.7909,VALID,0,VALID,23.7793,VALID,69,VALID,0,
2011-12-09, 00:24:04,VALID,997.14,VALID,0,VALID,93.8138,VALID,0,VALID,23.7793,VALID,138,VALID,0,
2011-12-09, 00:25:04,VALID,997.134,VALID,0,VALID,93.8138,VALID,0,VALID,23.8378,VALID,150,VALID,0,
2011-12-09, 00:26:04,VALID,997.148,VALID,0,VALID,93.8214,VALID,0,VALID,23.8768,VALID,151,VALID,0,
2011-12-09, 00:27:04,VALID,997.149,VALID,0,VALID,93.8367,VALID,0,VALID,23.9159,VALID,151,VALID,0,
2011-12-09, 00:28:04,VALID,997.162,VALID,0,VALID,93.8214,VALID,0,VALID,23.9549,VALID,151,VALID,0,
2011-12-09, 00:29:04,VALID,997.132,VALID,0,VALID,93.7985,VALID,0,VALID,23.9939,VALID,143,VALID,0,
2011-12-09, 00:30:04,VALID,997.125,VALID,0,VALID,93.707,VALID,0,VALID,24.0134,VALID,143,VALID,0,
2011-12-09, 00:31:04,VALID,997.125,VALID,0,VALID,93.6688,VALID,0,VALID,24.0329,VALID,143,VALID,0,
2011-12-09, 00:32:04,VALID,997.142,VALID,0,VALID,93.5773,VALID,0,VALID,24.0329,VALID,143,VALID,0,
2011-12-09, 00:33:04,VALID,997.151,VALID,0,VALID,93.5086,VALID,0,VALID,24.0116,VALID,143,VALID,0,
2011-12-09, 00:34:04,VALID,997.134,VALID,0,VALID,93.4247,VALID,0,VALID,23.9921,VALID,143,VALID,0,
2011-12-09, 00:35:04,VALID,997.123,VALID,0,VALID,93.3331,VALID,0,VALID,23.9939,VALID,143,VALID,0,
2011-12-09, 00:36:04,VALID,997.122,VALID,0,VALID,93.2874,VALID,0,VALID,23.9939,VALID,143,VALID,0,
2011-12-09, 00:37:04,VALID,997.127,VALID,0,VALID,93.2645,VALID,0,VALID,23.9744,VALID,143,VALID,0,
2011-12-09, 00:38:04,VALID,997.1,VALID,0,VALID,93.2645,VALID,0,VALID,23.9744,VALID,33,VALID,0,
2011-12-09, 00:39:04,VALID,997.082,VALID,0,VALID,93.234,VALID,0,VALID,23.9567,VALID,22,VALID,0,
2011-12-09, 00:40:04,VALID,997.06,VALID,0,VALID,93.2034,VALID,0,VALID,23.9567,VALID,22,VALID,0,
2011-12-09, 00:41:04,VALID,997,VALID,0,VALID,93.1958,VALID,0,VALID,23.9177,VALID,22,VALID,0,
2011-12-09, 00:42:04,VALID,997.023,VALID,0,VALID,93.2492,VALID,0,VALID,23.9177,VALID,22,VALID,0,
2011-12-09, 00:43:04,VALID,997.014,VALID,0,VALID,93.234,VALID,0,VALID,23.8768,VALID,22,VALID,0,
2011-12-09, 00:44:04,VALID,997.021,VALID,0,VALID,93.2721,VALID,0,VALID,23.8786,VALID,22,VALID,0,
2011-12-09, 00:45:04,VALID,997.022,VALID,0,VALID,93.3408,VALID,0,VALID,23.8982,VALID,41,VALID,0,
2011-12-09, 00:46:04,VALID,997.046,VALID,0,VALID,93.4018,VALID,0,VALID,23.9177,VALID,132,VALID,0,
2011-12-09, 00:47:04,VALID,997.03,VALID,0,VALID,93.4476,VALID,0,VALID,23.9372,VALID,132,VALID,0,
2011-12-09, 00:48:04,VALID,997.032,VALID,0,VALID,93.4934,VALID,0,VALID,23.9567,VALID,132,VALID,0,
2011-12-09, 00:49:04,VALID,997.037,VALID,0,VALID,93.4247,VALID,0,VALID,23.9567,VALID,132,VALID,0,
2011-12-09, 00:50:04,VALID,997.016,VALID,0,VALID,93.3942,VALID,0,VALID,23.9567,VALID,132,VALID,0,
2011-12-09, 00:51:04,VALID,997.003,VALID,0,VALID,93.3866,VALID,0,VALID,23.9762,VALID,132,VALID,0,
2011-12-09, 00:52:04,VALID,996.979,VALID,0,VALID,93.3789,VALID,0,VALID,23.9957,VALID,132,VALID,0,
2011-12-09, 00:53:04,VALID,996.962,VALID,0,VALID,93.3331,VALID,0,VALID,23.9957,VALID,132,VALID,0,
2011-12-09, 00:54:04,VALID,996.995,VALID,0,VALID,93.3026,VALID,0,VALID,23.9939,VALID,144,VALID,0,
2011-12-09, 00:55:04,VALID,996.972,VALID,0,VALID,93.3484,VALID,0,VALID,24.0116,VALID,173,VALID,0,
2011-12-09, 00:56:04,VALID,996.956,VALID,0,VALID,93.3866,VALID,0,VALID,24.072,VALID,186,VALID,0,
2011-12-09, 00:57:04,VALID,996.977,VALID,0,VALID,93.4247,VALID,0,VALID,24.1305,VALID,186,VALID,1.18789,
2011-12-09, 00:58:04,VALID,996.949,VALID,0,VALID,93.3713,VALID,0,VALID,24.1696,VALID,186,VALID,0.891406,
2011-12-09, 00:59:04,VALID,996.943,VALID,0,VALID,93.3408,VALID,0,VALID,24.1677,VALID,186,VALID,0.945703,
2011-12-09, 01:00:04,VALID,996.958,VALID,0,VALID,93.2492,VALID,0,VALID,24.2067,VALID,186,VALID,1.19492,
2011-12-09, 01:01:04,VALID,996.956,VALID,0,VALID,93.1271,VALID,0,VALID,24.2263,VALID,188,VALID,1.19687,
2011-12-09, 01:02:04,VALID,996.915,VALID,0,VALID,92.9822,VALID,0,VALID,24.2848,VALID,188,VALID,1.19258,
2011-12-09, 01:03:04,VALID,996.91,VALID,0,VALID,92.8143,VALID,0,VALID,24.3257,VALID,183,VALID,1.31172,
2011-12-09, 01:04:04,VALID,996.883,VALID,0,VALID,92.532,VALID,0,VALID,24.3238,VALID,175,VALID,1.19219,
2011-12-09, 01:05:04,VALID,996.885,VALID,0,VALID,92.2879,VALID,0,VALID,24.3647,VALID,175,VALID,1.45,
2011-12-09, 01:06:04,VALID,996.852,VALID,0,VALID,92.0361,VALID,0.104696,VALID,24.3629,VALID,175,VALID,1.57383,
2011-12-09, 01:07:04,VALID,996.877,VALID,0,VALID,91.7996,VALID,0,VALID,24.4037,VALID,176,VALID,1.50117,
2011-12-09, 01:08:04,VALID,996.866,VALID,0,VALID,91.5249,VALID,0,VALID,24.4037,VALID,176,VALID,1.50273,
2011-12-09, 01:09:04,VALID,996.883,VALID,0,VALID,91.3647,VALID,0,VALID,24.4019,VALID,174,VALID,1.30234,
2011-12-09, 01:10:04,VALID,996.886,VALID,0,VALID,91.2426,VALID,0,VALID,24.4037,VALID,175,VALID,1.43594,
2011-12-09, 01:11:04,VALID,996.877,VALID,0,VALID,91.1663,VALID,0,VALID,24.3842,VALID,166,VALID,1.01719,
2011-12-09, 01:12:04,VALID,996.877,VALID,0,VALID,91.1663,VALID,0,VALID,24.3629,VALID,165,VALID,1.32578,
2011-12-09, 01:13:04,VALID,996.846,VALID,0,VALID,91.1282,VALID,0,VALID,24.3433,VALID,157,VALID,1.16562,
2011-12-09, 01:14:04,VALID,996.856,VALID,0,VALID,91.1358,VALID,0,VALID,24.3452,VALID,156,VALID,0.769922,
2011-12-09, 01:15:04,VALID,996.837,VALID,0,VALID,91.1663,VALID,0,VALID,24.3043,VALID,154,VALID,0.810547,
2011-12-09, 01:16:04,VALID,996.844,VALID,0,VALID,91.2045,VALID,0,VALID,24.2866,VALID,154,VALID,0.45625,
2011-12-09, 01:17:04,VALID,996.856,VALID,0,VALID,91.2731,VALID,0,VALID,24.2476,VALID,154,VALID,0.439063,
2011-12-09, 01:18:04,VALID,996.845,VALID,0,VALID,91.3342,VALID,0,VALID,24.2086,VALID,154,VALID,0.335547,
2011-12-09, 01:19:04,VALID,996.836,VALID,0,VALID,91.3723,VALID,0,VALID,24.1677,VALID,154,VALID,0.0933594,
2011-12-09, 01:20:04,VALID,996.852,VALID,0,VALID,91.4257,VALID,0,VALID,24.15,VALID,154,VALID,0.00351562,
2011-12-09, 01:21:04,VALID,996.811,VALID,0,VALID,91.5402,VALID,0,VALID,24.111,VALID,154,VALID,0.00429688,
2011-12-09, 01:22:04,VALID,996.826,VALID,0,VALID,91.6394,VALID,0,VALID,24.0525,VALID,154,VALID,0.141016,
2011-12-09, 01:23:04,VALID,996.791,VALID,0,VALID,91.8225,VALID,0,VALID,24.0329,VALID,154,VALID,0,
2011-12-09, 01:24:04,VALID,996.793,VALID,0,VALID,91.9522,VALID,0,VALID,23.9726,VALID,154,VALID,0,
2011-12-09, 01:25:04,VALID,996.825,VALID,0,VALID,92.0514,VALID,0,VALID,23.9531,VALID,172,VALID,0.0136719,
2011-12-09, 01:26:04,VALID,996.832,VALID,0,VALID,92.1658,VALID,0,VALID,23.8945,VALID,37,VALID,0,
2011-12-09, 01:27:04,VALID,996.846,VALID,0,VALID,92.3108,VALID,0,VALID,23.8945,VALID,37,VALID,0,
2011-12-09, 01:28:04,VALID,996.85,VALID,0,VALID,92.4786,VALID,0,VALID,23.8963,VALID,37,VALID,0,
2011-12-09, 01:29:04,VALID,996.863,VALID,0,VALID,92.5626,VALID,0,VALID,23.8768,VALID,37,VALID,0,
2011-12-09, 01:30:04,VALID,996.863,VALID,0,VALID,92.6694,VALID,0,VALID,23.8573,VALID,37,VALID,0,
2011-12-09, 01:31:04,VALID,996.87,VALID,0,VALID,92.7609,VALID,0,VALID,23.8573,VALID,37,VALID,0,
2011-12-09, 01:32:04,VALID,996.841,VALID,0,VALID,92.8677,VALID,0.104696,VALID,23.8573,VALID,37,VALID,0,
2011-12-09, 01:33:04,VALID,996.816,VALID,0,VALID,92.9517,VALID,0,VALID,23.836,VALID,37,VALID,0,
2011-12-09, 01:34:04,VALID,996.833,VALID,0,VALID,93.0508,VALID,0,VALID,23.8573,VALID,37,VALID,0,
2011-12-09, 01:35:05,VALID,996.835,VALID,0,VALID,93.0966,VALID,0,VALID,23.8165,VALID,37,VALID,0,
2011-12-09, 01:36:05,VALID,996.82,VALID,0,VALID,93.1653,VALID,0,VALID,23.8183,VALID,37,VALID,0,
2011-12-09, 01:37:05,VALID,996.817,VALID,0,VALID,93.1882,VALID,0,VALID,23.7988,VALID,37,VALID,0,
2011-12-09, 01:38:05,VALID,996.792,VALID,0,VALID,93.1958,VALID,0,VALID,23.7793,VALID,37,VALID,0.188281,
2011-12-09, 01:39:05,VALID,996.773,VALID,0,VALID,93.234,VALID,0,VALID,23.7384,VALID,37,VALID,0.455859,
2011-12-09, 01:40:05,VALID,996.778,VALID,0,VALID,93.3103,VALID,0,VALID,23.7384,VALID,37,VALID,0.483594,
2011-12-09, 01:41:05,VALID,996.769,VALID,0,VALID,93.3866,VALID,0,VALID,23.7189,VALID,37,VALID,0.55,
2011-12-09, 01:42:05,VALID,996.762,VALID,0,VALID,93.4323,VALID,0,VALID,23.7189,VALID,37,VALID,0.630859,
2011-12-09, 01:43:05,VALID,996.791,VALID,0,VALID,93.4552,VALID,0,VALID,23.7207,VALID,37,VALID,0.509375,
2011-12-09, 01:44:05,VALID,996.836,VALID,0,VALID,93.4857,VALID,0,VALID,23.7207,VALID,37,VALID,0.461328,
2011-12-09, 01:45:05,VALID,996.842,VALID,0,VALID,93.5391,VALID,0,VALID,23.6994,VALID,37,VALID,0.362109,
2011-12-09, 01:46:05,VALID,996.899,VALID,0,VALID,93.5926,VALID,0,VALID,23.7207,VALID,37,VALID,0.258984,
2011-12-09, 01:47:05,VALID,996.893,VALID,0,VALID,93.6231,VALID,0,VALID,23.6604,VALID,37,VALID,0.176953,
2011-12-09, 01:48:05,VALID,996.864,VALID,0,VALID,93.6383,VALID,0,VALID,23.6817,VALID,37,VALID,0.184766,
2011-12-09, 01:49:05,VALID,996.878,VALID,0,VALID,93.6765,VALID,0,VALID,23.6817,VALID,37,VALID,0.171875,
2011-12-09, 01:50:05,VALID,996.894,VALID,0,VALID,93.6917,VALID,0,VALID,23.6622,VALID,37,VALID,0.303906,
2011-12-09, 01:51:05,VALID,996.921,VALID,0,VALID,93.7528,VALID,0,VALID,23.6817,VALID,37,VALID,0.475391,
2011-12-09, 01:52:05,VALID,996.941,VALID,0,VALID,93.7909,VALID,0,VALID,23.6817,VALID,37,VALID,0.617969,
2011-12-09, 01:53:05,VALID,996.943,VALID,0,VALID,93.7833,VALID,0,VALID,23.6214,VALID,37,VALID,0.677734,
2011-12-09, 01:54:05,VALID,996.973,VALID,0,VALID,93.7909,VALID,0,VALID,23.6019,VALID,25,VALID,0.725781,
2011-12-09, 01:55:05,VALID,996.974,VALID,0,VALID,93.8138,VALID,0.104696,VALID,23.6019,VALID,25,VALID,0.728906,
2011-12-09, 01:56:05,VALID,996.972,VALID,0,VALID,93.8443,VALID,0,VALID,23.6232,VALID,25,VALID,0.759375,
2011-12-09, 01:57:05,VALID,996.995,VALID,0,VALID,93.8748,VALID,0,VALID,23.6427,VALID,25,VALID,0.810156,
2011-12-09, 01:58:05,VALID,997.034,VALID,0,VALID,93.8748,VALID,0,VALID,23.6019,VALID,25,VALID,0.832422,
2011-12-09, 01:59:05,VALID,997.023,VALID,0,VALID,93.8367,VALID,0,VALID,23.5628,VALID,25,VALID,0.7625,
2011-12-09, 02:00:05,VALID,997.046,VALID,0,VALID,93.8443,VALID,0,VALID,23.5628,VALID,25,VALID,0.977344,
2011-12-09, 02:01:05,VALID,997.032,VALID,0,VALID,93.852,VALID,0,VALID,23.5823,VALID,25,VALID,0.842188,
2011-12-09, 02:02:05,VALID,997.015,VALID,0,VALID,93.8443,VALID,0,VALID,23.5841,VALID,25,VALID,0.856641,
2011-12-09, 02:03:05,VALID,997.024,VALID,0,VALID,93.852,VALID,0,VALID,23.5841,VALID,25,VALID,0.739453,
2011-12-09, 02:04:05,VALID,997.008,VALID,0,VALID,93.852,VALID,0,VALID,23.5646,VALID,25,VALID,0.680469,
2011-12-09, 02:05:05,VALID,997.012,VALID,0,VALID,93.8062,VALID,0,VALID,23.5238,VALID,25,VALID,0.482422,
2011-12-09, 02:06:05,VALID,997.014,VALID,0,VALID,93.7909,VALID,0,VALID,23.5256,VALID,25,VALID,0.609766,
2011-12-09, 02:07:05,VALID,997.015,VALID,0,VALID,93.7985,VALID,0.104696,VALID,23.5256,VALID,25,VALID,0.544141,
2011-12-09, 02:08:05,VALID,997.026,VALID,0,VALID,93.7985,VALID,0,VALID,23.5256,VALID,25,VALID,0.455469,
2011-12-09, 02:09:05,VALID,997.037,VALID,0,VALID,93.7985,VALID,0,VALID,23.5238,VALID,25,VALID,0.332422,
2011-12-09, 02:10:05,VALID,997.078,VALID,0,VALID,93.8138,VALID,0,VALID,23.5043,VALID,25,VALID,0,
2011-12-09, 02:11:05,VALID,997.072,VALID,0,VALID,93.7909,VALID,0,VALID,23.5061,VALID,25,VALID,0,
2011-12-09, 02:12:05,VALID,997.072,VALID,0,VALID,93.7909,VALID,0,VALID,23.5061,VALID,25,VALID,0,
2011-12-09, 02:13:05,VALID,997.095,VALID,0,VALID,93.7985,VALID,0,VALID,23.4866,VALID,25,VALID,0,
2011-12-09, 02:14:05,VALID,997.081,VALID,0,VALID,93.7909,VALID,0,VALID,23.4671,VALID,25,VALID,0,
2011-12-09, 02:15:05,VALID,997.057,VALID,0,VALID,93.8138,VALID,0,VALID,23.4671,VALID,25,VALID,0,
2011-12-09, 02:16:05,VALID,997.101,VALID,0,VALID,93.8291,VALID,0,VALID,23.4671,VALID,25,VALID,0,
2011-12-09, 02:17:05,VALID,997.085,VALID,0,VALID,93.8596,VALID,0,VALID,23.4671,VALID,25,VALID,0,
2011-12-09, 02:18:05,VALID,997.087,VALID,0,VALID,93.8672,VALID,0,VALID,23.4671,VALID,25,VALID,0,
2011-12-09, 02:19:05,VALID,997.072,VALID,0,VALID,93.913,VALID,0,VALID,23.4866,VALID,25,VALID,0,
2011-12-09, 02:20:05,VALID,997.063,VALID,0,VALID,93.9511,VALID,0,VALID,23.5256,VALID,78,VALID,0,
2011-12-09, 02:21:05,VALID,997.051,VALID,0,VALID,93.9969,VALID,0,VALID,23.5451,VALID,94,VALID,0,
2011-12-09, 02:22:05,VALID,997.011,VALID,0,VALID,94.0045,VALID,0,VALID,23.5646,VALID,101,VALID,0,
2011-12-09, 02:23:05,VALID,997.025,VALID,0,VALID,94.0274,VALID,0,VALID,23.5823,VALID,108,VALID,0,
2011-12-09, 02:24:05,VALID,997.002,VALID,0,VALID,94.0427,VALID,0,VALID,23.5841,VALID,115,VALID,0,
2011-12-09, 02:25:05,VALID,997.043,VALID,0,VALID,94.0274,VALID,0,VALID,23.5628,VALID,119,VALID,0,
2011-12-09, 02:26:05,VALID,997.051,VALID,0,VALID,93.9969,VALID,0,VALID,23.5823,VALID,122,VALID,0,
2011-12-09, 02:27:05,VALID,997.078,VALID,0,VALID,94.0351,VALID,0,VALID,23.5823,VALID,123,VALID,0,
2011-12-09, 02:28:05,VALID,997.108,VALID,0,VALID,93.9969,VALID,0,VALID,23.6232,VALID,126,VALID,0,
2011-12-09, 02:29:05,VALID,997.079,VALID,0,VALID,94.0122,VALID,0,VALID,23.6427,VALID,126,VALID,0,
2011-12-09, 02:30:05,VALID,997.094,VALID,0,VALID,93.9969,VALID,0,VALID,23.6409,VALID,126,VALID,0,
2011-12-09, 02:31:05,VALID,997.116,VALID,0,VALID,93.9817,VALID,0,VALID,23.6799,VALID,126,VALID,0,
2011-12-09, 02:32:05,VALID,997.072,VALID,0,VALID,93.9664,VALID,0,VALID,23.6817,VALID,126,VALID,0,
2011-12-09, 02:33:05,VALID,997.071,VALID,0,VALID,93.974,VALID,0,VALID,23.7012,VALID,126,VALID,0,
2011-12-09, 02:34:05,VALID,997.08,VALID,0,VALID,93.9588,VALID,0,VALID,23.6817,VALID,126,VALID,0,
2011-12-09, 02:35:05,VALID,997.035,VALID,0,VALID,93.9359,VALID,0,VALID,23.6622,VALID,126,VALID,0,
2011-12-09, 02:36:05,VALID,997.029,VALID,0,VALID,93.9054,VALID,0,VALID,23.6622,VALID,126,VALID,0,
2011-12-09, 02:37:05,VALID,997.072,VALID,0,VALID,93.9206,VALID,0,VALID,23.6409,VALID,126,VALID,0,
2011-12-09, 02:38:05,VALID,997.047,VALID,0,VALID,93.9206,VALID,0,VALID,23.6622,VALID,126,VALID,0,
2011-12-09, 02:39:05,VALID,997.013,VALID,0,VALID,93.9359,VALID,0,VALID,23.6622,VALID,126,VALID,0,
2011-12-09, 02:40:05,VALID,997.001,VALID,0,VALID,93.9817,VALID,0,VALID,23.6604,VALID,126,VALID,0,
2011-12-09, 02:41:05,VALID,997.022,VALID,0,VALID,93.9664,VALID,0,VALID,23.6604,VALID,126,VALID,0,
2011-12-09, 02:42:05,VALID,996.999,VALID,0,VALID,93.9817,VALID,0,VALID,23.6799,VALID,126,VALID,0,
2011-12-09, 02:43:05,VALID,996.957,VALID,0,VALID,93.9969,VALID,0,VALID,23.7012,VALID,126,VALID,0,
2011-12-09, 02:44:05,VALID,996.979,VALID,0,VALID,94.0351,VALID,0,VALID,23.6994,VALID,126,VALID,0,
2011-12-09, 02:45:05,VALID,996.966,VALID,0,VALID,94.0274,VALID,0,VALID,23.7207,VALID,126,VALID,0,
2011-12-09, 02:46:05,VALID,996.964,VALID,0,VALID,94.0198,VALID,0,VALID,23.7207,VALID,126,VALID,0,
2011-12-09, 02:47:05,VALID,996.981,VALID,0,VALID,94.0351,VALID,0,VALID,23.7189,VALID,126,VALID,0,
2011-12-09, 02:48:05,VALID,996.973,VALID,0,VALID,94.0427,VALID,0.104696,VALID,23.7189,VALID,126,VALID,0,
2011-12-09, 02:49:05,VALID,996.959,VALID,0,VALID,94.0656,VALID,0,VALID,23.7402,VALID,126,VALID,0,
2011-12-09, 02:50:05,VALID,996.956,VALID,0,VALID,94.0503,VALID,0.104696,VALID,23.7189,VALID,126,VALID,0,
2011-12-09, 02:51:05,VALID,996.967,VALID,0,VALID,94.0351,VALID,0,VALID,23.7402,VALID,126,VALID,0,
2011-12-09, 02:52:05,VALID,996.961,VALID,0,VALID,94.0503,VALID,0,VALID,23.6994,VALID,126,VALID,0,
2011-12-09, 02:53:05,VALID,996.982,VALID,0,VALID,94.0427,VALID,0,VALID,23.7402,VALID,126,VALID,0,
2011-12-09, 02:54:05,VALID,996.935,VALID,0,VALID,94.0351,VALID,0,VALID,23.7207,VALID,126,VALID,0,
2011-12-09, 02:55:05,VALID,996.931,VALID,0,VALID,94.0045,VALID,0,VALID,23.7012,VALID,126,VALID,0,
2011-12-09, 02:56:05,VALID,996.942,VALID,0,VALID,93.9893,VALID,0,VALID,23.6817,VALID,126,VALID,0,
2011-12-09, 02:57:05,VALID,996.926,VALID,0,VALID,93.9664,VALID,0,VALID,23.6409,VALID,126,VALID,0,
2011-12-09, 02:58:05,VALID,996.905,VALID,0,VALID,93.9817,VALID,0,VALID,23.6622,VALID,126,VALID,0,
2011-12-09, 02:59:05,VALID,996.918,VALID,0,VALID,93.974,VALID,0,VALID,23.6817,VALID,126,VALID,0,
2011-12-09, 03:00:05,VALID,996.898,VALID,0,VALID,93.9664,VALID,0,VALID,23.6817,VALID,126,VALID,0,
2011-12-09, 03:01:05,VALID,996.89,VALID,0,VALID,93.9206,VALID,0,VALID,23.6427,VALID,126,VALID,0,
2011-12-09, 03:02:05,VALID,996.891,VALID,0,VALID,93.8443,VALID,0,VALID,23.5646,VALID,25,VALID,0,
2011-12-09, 03:03:05,VALID,996.897,VALID,0,VALID,93.8291,VALID,0,VALID,23.5256,VALID,25,VALID,0,
2011-12-09, 03:04:05,VALID,996.902,VALID,0,VALID,93.8062,VALID,0,VALID,23.4866,VALID,25,VALID,0,
2011-12-09, 03:05:05,VALID,996.903,VALID,0,VALID,93.8291,VALID,0,VALID,23.4671,VALID,25,VALID,0,
2011-12-09, 03:06:05,VALID,996.928,VALID,0,VALID,93.8291,VALID,0.104696,VALID,23.4475,VALID,25,VALID,0,
2011-12-09, 03:07:05,VALID,996.929,VALID,0,VALID,93.8825,VALID,0,VALID,23.3872,VALID,25,VALID,0,
2011-12-09, 03:08:05,VALID,996.947,VALID,0,VALID,93.9054,VALID,0,VALID,23.4085,VALID,25,VALID,0,
2011-12-09, 03:09:05,VALID,996.96,VALID,0,VALID,93.9435,VALID,0,VALID,23.3872,VALID,25,VALID,0,
2011-12-09, 03:10:05,VALID,996.987,VALID,0,VALID,93.9817,VALID,0,VALID,23.4085,VALID,25,VALID,0,
2011-12-09, 03:11:05,VALID,997,VALID,0,VALID,94.0045,VALID,0,VALID,23.3092,VALID,25,VALID,0,
2011-12-09, 03:12:05,VALID,997.014,VALID,0,VALID,93.9588,VALID,0,VALID,23.2524,VALID,25,VALID,0,
2011-12-09, 03:13:05,VALID,997.053,VALID,0,VALID,93.9359,VALID,0,VALID,23.1939,VALID,25,VALID,0,
2011-12-09, 03:14:05,VALID,997.064,VALID,0,VALID,93.9817,VALID,0,VALID,23.2117,VALID,25,VALID,0,
2011-12-09, 03:15:05,VALID,997.067,VALID,0,VALID,94.0045,VALID,0,VALID,23.2329,VALID,25,VALID,0,
2011-12-09, 03:16:05,VALID,997.092,VALID,0,VALID,94.0427,VALID,0,VALID,23.2524,VALID,25,VALID,0,
2011-12-09, 03:17:05,VALID,997.076,VALID,0,VALID,94.0656,VALID,0,VALID,23.2507,VALID,25,VALID,0,
2011-12-09, 03:18:05,VALID,997.108,VALID,0,VALID,94.1037,VALID,0,VALID,23.3323,VALID,25,VALID,0,
2011-12-09, 03:19:05,VALID,997.122,VALID,0,VALID,94.1114,VALID,0,VALID,23.311,VALID,25,VALID,0,
2011-12-09, 03:20:05,VALID,997.154,VALID,0,VALID,94.1571,VALID,0,VALID,23.2915,VALID,25,VALID,0,
2011-12-09, 03:21:05,VALID,997.182,VALID,0,VALID,94.1495,VALID,0,VALID,23.311,VALID,25,VALID,0,
2011-12-09, 03:22:05,VALID,997.205,VALID,0,VALID,94.1648,VALID,0,VALID,23.2915,VALID,25,VALID,0,
2011-12-09, 03:23:05,VALID,997.228,VALID,0,VALID,94.18,VALID,0,VALID,23.2915,VALID,25,VALID,0,
2011-12-09, 03:24:05,VALID,997.209,VALID,0,VALID,94.18,VALID,0,VALID,23.2507,VALID,25,VALID,0,
2011-12-09, 03:25:05,VALID,997.234,VALID,0,VALID,94.1877,VALID,0,VALID,23.2524,VALID,25,VALID,0,
2011-12-09, 03:26:05,VALID,997.2,VALID,0,VALID,94.2029,VALID,0,VALID,23.2524,VALID,25,VALID,0,
2011-12-09, 03:27:05,VALID,997.218,VALID,0,VALID,94.2105,VALID,0,VALID,23.2329,VALID,25,VALID,0,
2011-12-09, 03:28:05,VALID,997.2,VALID,0,VALID,94.2334,VALID,0,VALID,23.2312,VALID,25,VALID,0,
2011-12-09, 03:29:05,VALID,997.228,VALID,0,VALID,94.2411,VALID,0,VALID,23.2719,VALID,25,VALID,0,
2011-12-09, 03:30:05,VALID,997.259,VALID,0,VALID,94.2334,VALID,0,VALID,23.2524,VALID,25,VALID,0,
2011-12-09, 03:31:05,VALID,997.244,VALID,0,VALID,94.2563,VALID,0,VALID,23.2719,VALID,25,VALID,0,
2011-12-09, 03:32:05,VALID,997.259,VALID,0,VALID,94.2563,VALID,0,VALID,23.2719,VALID,25,VALID,0,
2011-12-09, 03:33:05,VALID,997.245,VALID,0,VALID,94.2716,VALID,0,VALID,23.2719,VALID,25,VALID,0,
2011-12-09, 03:34:05,VALID,997.237,VALID,0,VALID,94.2868,VALID,0,VALID,23.2719,VALID,25,VALID,0,
2011-12-09, 03:35:05,VALID,997.259,VALID,0,VALID,94.3021,VALID,0,VALID,23.2719,VALID,25,VALID,0,
2011-12-09, 03:36:05,VALID,997.243,VALID,0,VALID,94.3097,VALID,0,VALID,23.2507,VALID,25,VALID,0,
2011-12-09, 03:37:05,VALID,997.261,VALID,0,VALID,94.3097,VALID,0,VALID,23.2719,VALID,25,VALID,0,
2011-12-09, 03:38:05,VALID,997.224,VALID,0,VALID,94.3403,VALID,0,VALID,23.2719,VALID,25,VALID,0,
2011-12-09, 03:39:05,VALID,997.243,VALID,0,VALID,94.3326,VALID,0,VALID,23.2524,VALID,25,VALID,0,
2011-12-09, 03:40:05,VALID,997.247,VALID,0,VALID,94.3326,VALID,0,VALID,23.2524,VALID,25,VALID,0,
2011-12-09, 03:41:05,VALID,997.275,VALID,0,VALID,94.3326,VALID,0,VALID,23.2719,VALID,25,VALID,0,
2011-12-09, 03:42:05,VALID,997.273,VALID,0,VALID,94.3555,VALID,0,VALID,23.2507,VALID,25,VALID,0,
2011-12-09, 03:43:05,VALID,997.27,VALID,0,VALID,94.3479,VALID,0,VALID,23.2524,VALID,25,VALID,0,
2011-12-09, 03:44:05,VALID,997.273,VALID,0,VALID,94.3631,VALID,0,VALID,23.2915,VALID,25,VALID,0,
2011-12-09, 03:45:05,VALID,997.286,VALID,0,VALID,94.3479,VALID,0,VALID,23.2915,VALID,25,VALID,0,
2011-12-09, 03:46:05,VALID,997.362,VALID,0,VALID,94.3555,VALID,0,VALID,23.2134,VALID,29,VALID,0,
2011-12-09, 03:47:05,VALID,997.367,VALID,0,VALID,94.3326,VALID,0,VALID,23.1744,VALID,38,VALID,0,
2011-12-09, 03:48:05,VALID,997.365,VALID,0,VALID,94.325,VALID,0,VALID,23.1549,VALID,38,VALID,0,
2011-12-09, 03:49:05,VALID,997.361,VALID,0,VALID,94.3326,VALID,0,VALID,23.1549,VALID,38,VALID,0,
2011-12-09, 03:50:05,VALID,997.381,VALID,0,VALID,94.3403,VALID,0,VALID,23.1744,VALID,38,VALID,0,
2011-12-09, 03:51:05,VALID,997.372,VALID,0,VALID,94.325,VALID,0,VALID,23.1939,VALID,38,VALID,0,
2011-12-09, 03:52:05,VALID,997.391,VALID,0,VALID,94.3326,VALID,0,VALID,23.1939,VALID,38,VALID,0,
2011-12-09, 03:53:05,VALID,997.416,VALID,0,VALID,94.3174,VALID,0,VALID,23.1744,VALID,38,VALID,0,
2011-12-09, 03:54:05,VALID,997.422,VALID,0,VALID,94.325,VALID,0,VALID,23.1549,VALID,38,VALID,0,
2011-12-09, 03:55:05,VALID,997.416,VALID,0,VALID,94.3097,VALID,0,VALID,23.1566,VALID,38,VALID,0,
2011-12-09, 03:56:05,VALID,997.422,VALID,0,VALID,94.3174,VALID,0,VALID,23.1159,VALID,38,VALID,0,
2011-12-09, 03:57:05,VALID,997.413,VALID,0,VALID,94.325,VALID,0,VALID,23.1159,VALID,38,VALID,0,